Time,TemperatureF,DewpointF,PressureIn,WindDirection,WindDirectionDegrees,WindSpeedMPH,WindSpeedGustMPH,Humidity,HourlyPrecipIn,Conditions,Clouds,dailyrainin,SolarRadiationWatts/m^2,SoftwareType,DateUTC
2013-05-11 00:02:00,55.0,41.0,-100.00,East,85,3.0,4.0,59,-99.99,,,0.00,0.000000,,2013-05-11 06:02:00,
2013-05-11 00:12:00,55.0,41.0,-100.00,East,85,3.0,4.0,59,-99.99,,,0.00,0.000000,,2013-05-11 06:12:00,
2013-05-11 00:42:00,53.0,40.0,-100.00,SSE,147,2.0,4.0,61,-99.99,,,0.00,0.000000,,2013-05-11 06:42:00,
2013-05-11 00:52:00,53.0,40.0,-100.00,SSE,147,2.0,4.0,61,-99.99,,,0.00,0.000000,,2013-05-11 06:52:00,
2013-05-11 01:01:00,53.0,40.0,-100.00,SSE,147,2.0,4.0,61,-99.99,,,0.00,0.000000,,2013-05-11 07:01:00,
2013-05-11 01:11:00,53.0,40.0,-100.00,SSE,147,2.0,4.0,61,-99.99,,,0.00,0.000000,,2013-05-11 07:11:00,
2013-05-11 01:42:00,50.0,41.0,-100.00,SE,142,3.0,4.0,70,-99.99,,,0.00,0.000000,,2013-05-11 07:42:00,
2013-05-11 01:52:00,50.0,41.0,-100.00,SE,142,3.0,4.0,70,-99.99,,,0.00,0.000000,,2013-05-11 07:52:00,
2013-05-11 02:01:00,50.0,41.0,-100.00,SE,142,3.0,4.0,70,-99.99,,,0.00,0.000000,,2013-05-11 08:01:00,
2013-05-11 02:12:00,50.0,41.0,-100.00,SE,142,3.0,4.0,70,-99.99,,,0.00,0.000000,,2013-05-11 08:12:00,
2013-05-11 02:42:00,50.0,39.0,-100.00,SE,136,2.0,3.0,65,-99.99,,,0.00,0.000000,,2013-05-11 08:42:00,
2013-05-11 02:52:00,50.0,39.0,-100.00,SE,136,2.0,3.0,65,-99.99,,,0.00,0.000000,,2013-05-11 08:52:00,
2013-05-11 03:01:00,50.0,39.0,-100.00,SE,136,2.0,3.0,65,-99.99,,,0.00,0.000000,,2013-05-11 09:01:00,
2013-05-11 03:11:00,50.0,39.0,-100.00,SE,136,2.0,3.0,65,-99.99,,,0.00,0.000000,,2013-05-11 09:11:00,
2013-05-11 03:42:00,53.0,37.0,-100.00,NW,308,1.0,2.0,54,-99.99,,,0.00,0.000000,,2013-05-11 09:42:00,
2013-05-11 03:52:00,53.0,37.0,-100.00,NW,308,1.0,2.0,54,-99.99,,,0.00,0.000000,,2013-05-11 09:52:00,
2013-05-11 04:03:00,53.0,37.0,-100.00,NW,308,1.0,2.0,54,-99.99,,,0.00,0.000000,,2013-05-11 10:03:00,
2013-05-11 04:12:00,53.0,37.0,-100.00,NW,308,1.0,2.0,54,-99.99,,,0.00,0.000000,,2013-05-11 10:12:00,
2013-05-11 04:42:00,48.0,38.0,-100.00,ESE,102,2.0,4.0,67,-99.99,,,-99.99,0.000000,,2013-05-11 10:42:00,
2013-05-11 04:52:00,48.0,38.0,-100.00,ESE,102,2.0,4.0,67,-99.99,,,-99.99,0.000000,,2013-05-11 10:52:00,
2013-05-11 05:02:00,48.0,38.0,-100.00,ESE,102,2.0,4.0,67,-99.99,,,-99.99,0.000000,,2013-05-11 11:02:00,
2013-05-11 05:11:00,48.0,38.0,-100.00,ESE,102,2.0,4.0,67,-99.99,,,-99.99,0.000000,,2013-05-11 11:11:00,
2013-05-11 05:42:00,45.0,38.0,-100.00,SE,135,1.0,4.0,76,-99.99,,,0.00,0.000000,,2013-05-11 11:42:00,
2013-05-11 05:52:00,45.0,38.0,-100.00,SE,135,1.0,4.0,76,-99.99,,,0.00,0.000000,,2013-05-11 11:52:00,
2013-05-11 06:01:00,45.0,38.0,-100.00,SE,135,1.0,4.0,76,-99.99,,,0.00,0.000000,,2013-05-11 12:01:00,
2013-05-11 06:11:00,45.0,38.0,-100.00,SE,135,1.0,4.0,76,-99.99,,,0.00,0.000000,,2013-05-11 12:11:00,
2013-05-11 06:42:00,48.0,38.0,-100.00,North,0,0.0,0.0,69,-99.99,,,0.00,6.510000,,2013-05-11 12:42:00,
2013-05-11 06:52:00,48.0,38.0,-100.00,North,0,0.0,0.0,69,-99.99,,,0.00,6.510000,,2013-05-11 12:52:00,
2013-05-11 07:01:00,48.0,38.0,-100.00,North,0,0.0,0.0,69,-99.99,,,0.00,6.510000,,2013-05-11 13:01:00,
2013-05-11 07:11:00,48.0,38.0,-100.00,North,0,0.0,0.0,69,-99.99,,,0.00,6.510000,,2013-05-11 13:11:00,
2013-05-11 07:41:00,48.0,40.0,-100.00,SSE,156,1.0,3.0,73,-99.99,,,0.00,46.139999,,2013-05-11 13:41:00,
2013-05-11 07:52:00,48.0,40.0,-100.00,SSE,156,1.0,3.0,73,-99.99,,,0.00,46.139999,,2013-05-11 13:52:00,
2013-05-11 08:02:00,48.0,40.0,-100.00,SSE,156,1.0,3.0,73,-99.99,,,0.00,46.139999,,2013-05-11 14:02:00,
2013-05-11 08:11:00,48.0,40.0,-100.00,SSE,156,1.0,3.0,73,-99.99,,,0.00,46.139999,,2013-05-11 14:11:00,
2013-05-11 08:41:00,51.0,40.0,-100.00,SSE,162,3.0,5.0,66,-99.99,,,0.00,244.529999,,2013-05-11 14:41:00,
2013-05-11 08:52:00,51.0,40.0,-100.00,SSE,162,3.0,5.0,66,-99.99,,,0.00,244.529999,,2013-05-11 14:52:00,
2013-05-11 09:01:00,51.0,40.0,-100.00,SSE,162,3.0,5.0,66,-99.99,,,0.00,244.529999,,2013-05-11 15:01:00,
2013-05-11 09:11:00,51.0,40.0,-100.00,SSE,162,3.0,5.0,66,-99.99,,,0.00,244.529999,,2013-05-11 15:11:00,
2013-05-11 10:42:00,61.0,42.0,-100.00,NE,41,2.0,4.0,51,-99.99,,,0.00,669.190002,,2013-05-11 16:42:00,
2013-05-11 10:53:00,61.0,42.0,-100.00,NE,41,2.0,4.0,51,-99.99,,,0.00,669.190002,,2013-05-11 16:53:00,
2013-05-11 11:02:00,61.0,42.0,-100.00,NE,41,2.0,4.0,51,-99.99,,,0.00,669.190002,,2013-05-11 17:02:00,
2013-05-11 11:12:00,61.0,42.0,-100.00,NE,41,2.0,4.0,51,-99.99,,,0.00,669.190002,,2013-05-11 17:12:00,
2013-05-11 11:41:00,65.0,43.0,-100.00,NNW,331,2.0,6.0,44,-99.99,,,0.00,791.340027,,2013-05-11 17:41:00,
2013-05-11 11:52:00,65.0,43.0,-100.00,NNW,331,2.0,6.0,44,-99.99,,,0.00,791.340027,,2013-05-11 17:52:00,
2013-05-11 12:01:00,65.0,43.0,-100.00,NNW,331,2.0,6.0,44,-99.99,,,0.00,791.340027,,2013-05-11 18:01:00,
2013-05-11 12:11:00,65.0,43.0,-100.00,NNW,331,2.0,6.0,44,-99.99,,,0.00,791.340027,,2013-05-11 18:11:00,
2013-05-11 12:41:00,70.0,44.0,-100.00,NW,315,2.0,5.0,39,-99.99,,,0.00,911.159973,,2013-05-11 18:41:00,
2013-05-11 12:52:00,70.0,44.0,-100.00,NW,315,2.0,5.0,39,-99.99,,,0.00,911.159973,,2013-05-11 18:52:00,
2013-05-11 13:02:00,70.0,44.0,-100.00,NW,315,2.0,5.0,39,-99.99,,,0.00,911.159973,,2013-05-11 19:02:00,
2013-05-11 13:11:00,70.0,44.0,-100.00,NW,315,2.0,5.0,39,-99.99,,,0.00,911.159973,,2013-05-11 19:11:00,
2013-05-11 13:41:00,76.0,42.0,-100.00,SW,225,2.0,6.0,29,-99.99,,,-99.99,705.109985,,2013-05-11 19:41:00,
2013-05-11 13:52:00,76.0,42.0,-100.00,SW,225,2.0,6.0,29,-99.99,,,-99.99,705.109985,,2013-05-11 19:52:00,
2013-05-11 14:01:00,76.0,42.0,-100.00,SW,225,2.0,6.0,29,-99.99,,,-99.99,705.109985,,2013-05-11 20:01:00,
2013-05-11 14:11:00,76.0,42.0,-100.00,SW,225,2.0,6.0,29,-99.99,,,-99.99,705.109985,,2013-05-11 20:11:00,
2013-05-11 14:42:00,79.0,36.0,-100.00,SSE,166,3.0,6.0,21,-99.99,,,0.00,393.869995,,2013-05-11 20:42:00,
2013-05-11 14:52:00,79.0,36.0,-100.00,SSE,166,3.0,6.0,21,-99.99,,,0.00,393.869995,,2013-05-11 20:52:00,
2013-05-11 15:02:00,79.0,36.0,-100.00,SSE,166,3.0,6.0,21,-99.99,,,0.00,393.869995,,2013-05-11 21:02:00,
2013-05-11 15:11:00,79.0,36.0,-100.00,SSE,166,3.0,6.0,21,-99.99,,,0.00,393.869995,,2013-05-11 21:11:00,
2013-05-11 15:43:00,77.0,40.0,-100.00,East,83,4.0,8.0,25,-99.99,,,0.00,878.619995,,2013-05-11 21:43:00,
2013-05-11 15:52:00,77.0,40.0,-100.00,East,83,4.0,8.0,25,-99.99,,,0.00,878.619995,,2013-05-11 21:52:00,
2013-05-11 16:02:00,77.0,40.0,-100.00,East,83,4.0,8.0,25,-99.99,,,0.00,878.619995,,2013-05-11 22:02:00,
2013-05-11 16:12:00,77.0,40.0,-100.00,East,83,4.0,8.0,25,-99.99,,,0.00,878.619995,,2013-05-11 22:12:00,
2013-05-11 16:42:00,77.0,40.0,-100.00,West,269,3.0,6.0,27,-99.99,,,0.00,202.110001,,2013-05-11 22:42:00,
2013-05-11 16:52:00,77.0,40.0,-100.00,West,269,3.0,6.0,27,-99.99,,,0.00,202.110001,,2013-05-11 22:52:00,
2013-05-11 17:02:00,77.0,40.0,-100.00,West,269,3.0,6.0,27,-99.99,,,0.00,202.110001,,2013-05-11 23:02:00,
2013-05-11 17:11:00,77.0,40.0,-100.00,West,269,3.0,6.0,27,-99.99,,,0.00,202.110001,,2013-05-11 23:11:00,
2013-05-11 17:42:00,81.0,38.0,-100.00,WNW,287,3.0,9.0,21,-99.99,,,0.00,558.090027,,2013-05-11 23:42:00,
2013-05-11 17:52:00,81.0,38.0,-100.00,WNW,287,3.0,9.0,21,-99.99,,,0.00,558.090027,,2013-05-11 23:52:00,
2013-05-11 18:01:00,81.0,38.0,-100.00,WNW,287,3.0,9.0,21,-99.99,,,0.00,558.090027,,2013-05-12 00:01:00,
2013-05-11 18:11:00,81.0,38.0,-100.00,WNW,287,3.0,9.0,21,-99.99,,,0.00,558.090027,,2013-05-12 00:11:00,
2013-05-11 19:41:00,80.0,40.0,-100.00,West,276,4.0,8.0,23,-99.99,,,0.00,301.470001,,2013-05-12 01:41:00,
2013-05-11 19:52:00,80.0,40.0,-100.00,West,276,4.0,8.0,23,-99.99,,,0.00,301.470001,,2013-05-12 01:52:00,
2013-05-11 20:01:00,80.0,40.0,-100.00,West,276,4.0,8.0,23,-99.99,,,0.00,301.470001,,2013-05-12 02:01:00,
2013-05-11 20:11:00,80.0,40.0,-100.00,West,276,4.0,8.0,23,-99.99,,,0.00,301.470001,,2013-05-12 02:11:00,
2013-05-11 20:42:00,76.0,40.0,-100.00,WNW,288,2.0,6.0,28,-99.99,,,0.00,82.279999,,2013-05-12 02:42:00,
2013-05-11 20:52:00,76.0,40.0,-100.00,WNW,288,2.0,6.0,28,-99.99,,,0.00,82.279999,,2013-05-12 02:52:00,
2013-05-11 21:01:00,76.0,40.0,-100.00,WNW,288,2.0,6.0,28,-99.99,,,0.00,82.279999,,2013-05-12 03:01:00,
2013-05-11 21:11:00,76.0,40.0,-100.00,WNW,288,2.0,6.0,28,-99.99,,,0.00,82.279999,,2013-05-12 03:11:00,
2013-05-11 21:42:00,68.0,40.0,-100.00,NNE,27,1.0,3.0,35,-99.99,,,0.00,0.930000,,2013-05-12 03:42:00,
2013-05-11 21:53:00,68.0,40.0,-100.00,NNE,27,1.0,3.0,35,-99.99,,,0.00,0.930000,,2013-05-12 03:53:00,
2013-05-11 22:02:00,-999.0,-99.9,-100.00,NNE,27,1.0,3.0,35,-99.99,,,0.00,0.930000,,2013-05-12 04:02:00,
2013-05-11 22:12:00,68.0,40.0,-100.00,NNE,27,1.0,3.0,35,-99.99,,,0.00,0.930000,,2013-05-12 04:12:00,
2013-05-11 22:43:00,59.0,46.0,-100.00,SSE,149,2.0,4.0,60,-99.99,,,0.00,0.000000,,2013-05-12 04:43:00,
2013-05-11 22:52:00,59.0,46.0,-100.00,SSE,149,2.0,4.0,60,-99.99,,,0.00,0.000000,,2013-05-12 04:52:00,
2013-05-11 23:02:00,59.0,46.0,-100.00,SSE,149,2.0,4.0,60,-99.99,,,0.00,0.000000,,2013-05-12 05:02:00,
2013-05-11 23:11:00,59.0,46.0,-100.00,SSE,149,2.0,4.0,60,-99.99,,,0.00,0.000000,,2013-05-12 05:11:00,
2013-05-11 23:42:00,57.0,44.0,-100.00,SSE,152,1.0,3.0,59,-99.99,,,0.00,0.000000,,2013-05-12 05:42:00,
2013-05-11 23:52:00,57.0,44.0,-100.00,SSE,152,1.0,3.0,59,-99.99,,,0.00,0.000000,,2013-05-12 05:52:00,